Location: Le Domaine
(47.0333°N, 76.5361°W)
Time: 01:14:03
(UTC-05:00)

Explorer 11/Cluster Stage 4 - Pass Details

Date: 19 November 2019
Orbit: 467 x 1259 km, 28.8° (Epoch: 05 December)

Event Time Altitude Azimuth Distance (km) Brightness Sun altitude
Rises 19:57:03 0° 214° (SSW) 3,233 10.0 -35.4°
Enters shadow 19:58:46 - 203° (SSW) 2,857 9.6 -35.7°
Reaches altitude 10° 20:01:18 10° 182° (S) 2,519 - -36.1°
Maximum altitude 20:03:15 12° 163° (SSE) 2,499 - -36.5°
Drops below altitude 10° 20:05:19 10° 144° (SE) 2,708 - -36.8°
Sets 20:10:26 0° 115° (ESE) 3,873 - -37.7°
